Mount Sterling, KY

8:39 PM EST on December 07, 2016 (GMT -0500)
Mount Sterling-Montgomery County

Weather History for KIOB - April, 2013

Change the Weather History Date:

Sunday, April 28, 2013

  Actual Average Record
Temperature  
Mean Temperature 60 °F -  
Max Temperature 68 °F 69 °F 78 °F (2016)
Min Temperature 53 °F 47 °F 35 °F (2015)
Degree Days  
Heating Degree Days 4    
Growing Degree Days 10 (Base 50)    
Moisture  
Dew Point 54 °F    
Average Humidity 86    
Maximum Humidity 100    
Minimum Humidity 64    
Precipitation  
Precipitation 0.54 in - - ()
Sea Level Pressure  
Sea Level Pressure 29.96 in    
Wind  
Wind Speed 9 mph (SSW)    
Max Wind Speed 20 mph    
Max Gust Speed 25 mph    
Visibility 9 miles    
Events Rain    
Averages and records for this station are not official NWS values.
T = Trace of Precipitation, MM = Missing Value Source: NWS Daily Summary

Daily Weather History Graph

Daily Weather History Graph

Search for Another Location

Airport or City:

Trip Planner

Search our weather history database for the weather conditions in past years. The results will help you decide how hot, cold, wet, or windy it might be!

Date:

Astronomy

Apr. 28, 2013 Rise Set
Actual Time 6:42 AM EDT 8:24 PM EDT
Civil Twilight 6:14 AM EDT 8:52 PM EDT
Nautical Twilight 5:40 AM EDT 9:26 PM EDT
Astronomical Twilight 5:04 AM EDT 10:02 PM EDT
Moon 11:52 PM EDT (4/28) 9:00 AM EDT (4/28)
Length of Visible Light 14h 37m
Length of Day
13h 41m
Waning Gibbous, 89% of the Moon is Illuminated
Apr 28
Waning Gibbous
May 2
Last Quarter
May 9
New
May 18
First Quarter
May 25
Full

Hourly Weather History & Observations

Time (EDT) Temp. Dew Point Humidity Pressure Visibility Wind Dir Wind Speed Gust Speed Precip Events Conditions
12:15 AM 53.6 °F 53.6 °F 100% 30.09 in 7.0 mi SSE 6.9 mph - 0.04 in Rain Rain
12:35 AM 53.6 °F 53.6 °F 100% 30.08 in 5.0 mi SSE 8.1 mph - 0.12 in Rain Rain
12:55 AM 53.6 °F 53.6 °F 100% 30.07 in 10.0 mi SSE 8.1 mph - 0.15 in Rain Light Rain
1:15 AM 53.6 °F 53.6 °F 100% 30.06 in 10.0 mi SSE 10.4 mph - N/A Rain Light Rain
1:35 AM 53.6 °F 53.6 °F 100% 30.06 in 10.0 mi South 8.1 mph - N/A   Overcast
1:55 AM 53.6 °F 53.6 °F 100% 30.06 in 10.0 mi South 9.2 mph - N/A Rain Light Rain
2:15 AM 53.6 °F 53.6 °F 100% 30.05 in 7.0 mi South 11.5 mph - 0.06 in Rain Rain
2:35 AM 53.6 °F 53.6 °F 100% 30.03 in 7.0 mi South 10.4 mph - 0.10 in Rain Rain
2:55 AM 53.6 °F 53.6 °F 100% 30.01 in 7.0 mi South 12.7 mph - 0.16 in Rain Rain
3:15 AM 53.6 °F 53.6 °F 100% 30.00 in 7.0 mi South 10.4 mph - 0.05 in Rain Rain
3:35 AM 53.6 °F 53.6 °F 100% 29.98 in 7.0 mi SSE 6.9 mph - 0.09 in Rain Rain
3:55 AM 53.6 °F 53.6 °F 100% 29.99 in 7.0 mi SSW 5.8 mph - 0.12 in Rain Rain
4:15 AM 53.6 °F 53.6 °F 100% 29.98 in 10.0 mi South 12.7 mph - N/A Rain Light Rain
4:35 AM 53.6 °F 53.6 °F 100% 29.97 in 10.0 mi South 6.9 mph - N/A   Drizzle
4:55 AM 53.6 °F 53.6 °F 100% 29.98 in 10.0 mi SSW 6.9 mph - N/A   Overcast
5:15 AM 53.6 °F 53.6 °F 100% 29.99 in 10.0 mi SW 9.2 mph - N/A Rain Rain
5:35 AM 53.6 °F 53.6 °F 100% 29.97 in 10.0 mi SSW 9.2 mph - N/A   Overcast
5:55 AM 53.6 °F 53.6 °F 100% 29.96 in 10.0 mi SSW 8.1 mph - N/A   Mostly Cloudy
6:15 AM 53.6 °F 51.8 °F 94% 29.97 in 10.0 mi SSW 5.8 mph - N/A   Scattered Clouds
6:35 AM 53.6 °F 51.8 °F 94% 29.95 in 10.0 mi South 4.6 mph - N/A   Clear
6:55 AM 53.6 °F 51.8 °F 94% 29.95 in 10.0 mi SSE 4.6 mph - N/A   Clear
7:15 AM 53.6 °F 51.8 °F 94% 29.95 in 10.0 mi South 5.8 mph - N/A   Mostly Cloudy
7:35 AM 53.6 °F 51.8 °F 94% 29.96 in 10.0 mi South 4.6 mph - N/A   Scattered Clouds
7:55 AM 53.6 °F 51.8 °F 94% 29.96 in 10.0 mi South 5.8 mph - N/A   Scattered Clouds
8:15 AM 55.4 °F 51.8 °F 88% 29.96 in 10.0 mi South 8.1 mph - N/A   Mostly Cloudy
8:35 AM 55.4 °F 51.8 °F 88% 29.95 in 10.0 mi South 5.8 mph - N/A   Scattered Clouds
9:15 AM 57.2 °F 53.6 °F 88% 29.97 in 10.0 mi SSW 9.2 mph - N/A   Clear
9:35 AM 57.2 °F 53.6 °F 88% 29.96 in 10.0 mi SSW 8.1 mph - N/A   Mostly Cloudy
9:55 AM 57.2 °F 53.6 °F 88% 29.97 in 10.0 mi SSW 6.9 mph - N/A   Mostly Cloudy
10:15 AM 59.0 °F 53.6 °F 82% 29.97 in 10.0 mi SSW 10.4 mph - N/A   Scattered Clouds
10:35 AM 59.0 °F 53.6 °F 82% 29.98 in 10.0 mi SW 11.5 mph 16.1 mph N/A   Mostly Cloudy
10:55 AM 59.0 °F 53.6 °F 82% 29.96 in 7.0 mi SSW 10.4 mph 19.6 mph 0.02 in Rain Light Rain
11:15 AM 60.8 °F 55.4 °F 82% 29.97 in 10.0 mi SW 10.4 mph 16.1 mph N/A   Overcast
11:35 AM 60.8 °F 53.6 °F 77% 29.97 in 10.0 mi SSW 16.1 mph 20.7 mph N/A   Scattered Clouds
11:55 AM 60.8 °F 53.6 °F 77% 29.96 in 10.0 mi SW 16.1 mph 23.0 mph N/A   Scattered Clouds
12:15 PM 62.6 °F 55.4 °F 77% 29.96 in 10.0 mi SW 17.3 mph 21.9 mph N/A   Scattered Clouds
12:35 PM 64.4 °F 55.4 °F 73% 29.96 in 10.0 mi SSW 19.6 mph 25.3 mph N/A   Scattered Clouds
12:55 PM 62.6 °F 53.6 °F 72% 29.95 in 10.0 mi WSW 13.8 mph 19.6 mph N/A   Mostly Cloudy
1:15 PM 64.4 °F 55.4 °F 73% 29.94 in 10.0 mi SW 13.8 mph 21.9 mph N/A   Overcast
1:35 PM 64.4 °F 55.4 °F 73% 29.93 in 10.0 mi SW 12.7 mph 20.7 mph N/A   Overcast
1:55 PM 64.4 °F 55.4 °F 73% 29.93 in 10.0 mi WSW 10.4 mph - N/A   Overcast
2:15 PM 64.4 °F 55.4 °F 73% 29.93 in 10.0 mi SW 15.0 mph 19.6 mph N/A   Overcast
2:35 PM 64.4 °F 55.4 °F 73% 29.93 in 10.0 mi SW 12.7 mph 19.6 mph N/A   Overcast
2:55 PM 66.2 °F 55.4 °F 68% 29.92 in 10.0 mi SW 10.4 mph 16.1 mph N/A   Overcast
3:15 PM 66.2 °F 55.4 °F 68% 29.91 in 10.0 mi WSW 12.7 mph 21.9 mph N/A   Overcast
3:35 PM 68.0 °F 55.4 °F 64% 29.90 in 10.0 mi SW 12.7 mph 21.9 mph N/A   Mostly Cloudy
3:55 PM 68.0 °F 55.4 °F 64% 29.90 in 10.0 mi SW 15.0 mph 24.2 mph N/A   Mostly Cloudy
4:15 PM 66.2 °F 55.4 °F 68% 29.90 in 10.0 mi SSW 15.0 mph 24.2 mph N/A   Mostly Cloudy
4:35 PM 64.4 °F 53.6 °F 68% 29.89 in 10.0 mi SW 13.8 mph 21.9 mph N/A   Overcast
4:55 PM 64.4 °F 55.4 °F 73% 29.88 in 10.0 mi SSW 11.5 mph 20.7 mph N/A   Overcast
5:15 PM 64.4 °F 53.6 °F 68% 29.89 in 10.0 mi SW 13.8 mph 23.0 mph N/A   Mostly Cloudy
5:35 PM 64.4 °F 53.6 °F 68% 29.89 in 10.0 mi SSW 15.0 mph 21.9 mph N/A   Overcast
5:55 PM 64.4 °F 53.6 °F 68% 29.89 in 10.0 mi SSW 12.7 mph 20.7 mph N/A   Overcast
6:15 PM 64.4 °F 53.6 °F 68% 29.89 in 10.0 mi SW 12.7 mph 21.9 mph N/A   Overcast
6:35 PM 64.4 °F 53.6 °F 68% 29.89 in 10.0 mi SW 13.8 mph 21.9 mph N/A   Overcast
6:55 PM 62.6 °F 53.6 °F 72% 29.90 in 10.0 mi SW 16.1 mph - N/A   Overcast
7:15 PM 62.6 °F 53.6 °F 72% 29.89 in 10.0 mi SW 10.4 mph - N/A   Overcast
7:35 PM 62.6 °F 53.6 °F 72% 29.90 in 10.0 mi SW 10.4 mph - N/A   Overcast
7:55 PM 62.6 °F 53.6 °F 72% 29.89 in 10.0 mi SW 9.2 mph - N/A   Overcast
8:15 PM 62.6 °F 53.6 °F 72% 29.91 in 10.0 mi WNW 8.1 mph - N/A   Overcast
8:35 PM 59.0 °F 55.4 °F 88% 29.92 in 10.0 mi WNW 6.9 mph - 0.04 in Rain Light Rain
8:55 PM 57.2 °F 55.4 °F 94% 29.92 in 10.0 mi West 4.6 mph - 0.04 in Rain Light Rain
9:15 PM 57.2 °F 55.4 °F 94% 29.93 in 7.0 mi WSW 5.8 mph - 0.02 in Rain Light Rain
9:35 PM 57.2 °F 55.4 °F 94% 29.94 in 10.0 mi Calm Calm - 0.04 in Rain Light Rain
9:55 PM 57.2 °F 55.4 °F 94% 29.95 in 10.0 mi Calm Calm - 0.04 in   Overcast
10:15 PM 57.2 °F 55.4 °F 94% 29.96 in 7.0 mi WSW 4.6 mph - N/A Rain Heavy Rain
10:35 PM 55.4 °F 55.4 °F 100% 29.96 in 10.0 mi WSW 4.6 mph - 0.01 in   Light Drizzle
10:55 PM 55.4 °F 55.4 °F 100% 29.96 in 7.0 mi Calm Calm - 0.01 in   Light Drizzle
11:15 PM 55.4 °F 55.4 °F 100% 29.96 in 7.0 mi SSW 4.6 mph - N/A Rain Light Rain
11:35 PM 55.4 °F 55.4 °F 100% 29.95 in 7.0 mi SW 4.6 mph - N/A   Overcast
11:55 PM 55.4 °F 55.4 °F 100% 29.95 in 7.0 mi SW 3.5 mph - N/A   Overcast